Location: Newark
(30.1000°N, 109.4667°E)
Time: 15:29:09
(UTC+00:00)

Vanguard 1 Rocket - Pass Details

Date: 26 February 2020
Orbit: 650 x 4227 km, 34.3° (Epoch: 30 March)

Event Time Altitude Azimuth Distance (km) Brightness Sun altitude
Rises 14:13:42 0° 212° (SSW) 8,146 12.3 -46.7°
Reaches altitude 10° 14:20:51 10° 204° (SSW) 6,709 11.8 -48.2°
Enters shadow 14:28:25 22° 189° (S) 5,144 11.0 -49.7°
